SEJ235 VABB-VOML

Flight info

Callsign SEJ235
Flight time 1h 12m
Altitude 35000
Route IKATI W17 MML
Aircraft B738/M-SDE2E3FGHIRWXY/LB1

Departure

Time 2026-05-04 17:19
Airport Chhatrapati Shivaji Maharaj International Airport (VABB)

Arrival

Time 2026-05-04 18:31
Airport Mangaluru International Airport (VOML)
Time Latitude Longitude Altitude Speed Heading
2026-05-04 16:57 19.09524 72.87420 46 ft 0 kts 346°
2026-05-04 17:08 19.09509 72.87423 47 ft 4 kts 346°
2026-05-04 17:09 19.09483 72.87430 45 ft 4 kts 346°
2026-05-04 17:09 19.09457 72.87437 43 ft 3 kts 346°
2026-05-04 17:09 19.09436 72.87445 48 ft 4 kts 316°
2026-05-04 17:10 19.09425 72.87482 48 ft 1 kts 266°
2026-05-04 17:10 19.09425 72.87484 48 ft 0 kts 266°
2026-05-04 17:12 19.09429 72.87497 49 ft 0 kts 213°
2026-05-04 17:13 19.09408 72.87459 46 ft 6 kts 271°
2026-05-04 17:14 19.09372 72.87381 48 ft 0 kts 225°
2026-05-04 17:16 19.09271 72.87368 48 ft 3 kts 162°
2026-05-04 17:17 19.09254 72.87390 48 ft 7 kts 132°
2026-05-04 17:17 19.08914 72.87451 48 ft 12 kts 192°
2026-05-04 17:18 19.08878 72.87379 49 ft 12 kts 270°
2026-05-04 17:18 19.08858 72.85908 278 ft 183 kts 270°
2026-05-04 17:19 19.08911 72.82929 2129 ft 239 kts 271°
2026-05-04 17:19 19.08923 72.79258 3774 ft 253 kts 269°
2026-05-04 17:20 19.08756 72.75594 5820 ft 253 kts 263°
2026-05-04 17:20 19.07333 72.72142 7682 ft 270 kts 217°
2026-05-04 17:20 19.05599 72.71411 8622 ft 274 kts 186°
2026-05-04 17:21 19.02252 72.73024 9022 ft 277 kts 134°
2026-05-04 17:21 18.98963 72.75033 8991 ft 277 kts 169°
2026-05-04 17:22 18.97048 72.75118 9019 ft 276 kts 184°
2026-05-04 17:22 18.95134 72.74959 9001 ft 276 kts 184°
2026-05-04 17:23 18.89310 72.74631 9753 ft 284 kts 182°
2026-05-04 17:23 18.86760 72.74540 11223 ft 283 kts 181°
2026-05-04 17:23 18.78305 72.74306 14214 ft 330 kts 180°
2026-05-04 17:24 18.73794 72.75457 15969 ft 338 kts 160°
2026-05-04 17:24 18.59767 72.80519 19198 ft 383 kts 162°
2026-05-04 17:25 18.54886 72.82217 20174 ft 398 kts 162°
2026-05-04 17:25 18.50869 72.83611 21153 ft 403 kts 163°
2026-05-04 17:26 18.41614 72.86818 23199 ft 416 kts 163°
2026-05-04 17:26 18.12073 72.97036 28062 ft 441 kts 163°
2026-05-04 17:27 17.89307 73.06024 32403 ft 431 kts 160°
2026-05-04 17:27 17.67005 73.15034 35058 ft 449 kts 161°
2026-05-04 17:28 17.43305 73.24580 34832 ft 439 kts 161°
2026-05-04 17:29 17.15236 73.35835 34890 ft 462 kts 160°
2026-05-04 17:30 17.06300 73.40239 34903 ft 485 kts 153°
2026-05-04 17:31 17.00386 73.43550 34887 ft 477 kts 153°
2026-05-04 17:32 16.85727 73.51494 34901 ft 476 kts 154°
2026-05-04 17:33 16.73898 73.57803 34902 ft 478 kts 154°
2026-05-04 17:34 16.62067 73.64113 34898 ft 476 kts 154°
2026-05-04 17:35 16.47347 73.71953 34913 ft 474 kts 154°
2026-05-04 17:36 16.41469 73.75079 34916 ft 473 kts 154°
2026-05-04 17:36 16.35613 73.78192 34917 ft 472 kts 154°
2026-05-04 17:37 16.29781 73.81290 34924 ft 470 kts 154°
2026-05-04 17:37 16.23957 73.84382 34917 ft 469 kts 154°
2026-05-04 17:38 16.18147 73.87464 34917 ft 468 kts 154°
2026-05-04 17:38 16.12340 73.90543 34910 ft 468 kts 154°
2026-05-04 17:39 16.03879 73.95024 34925 ft 467 kts 154°
2026-05-04 17:39 15.98135 73.98065 34917 ft 467 kts 154°
2026-05-04 17:40 15.92438 74.01078 34914 ft 467 kts 154°
2026-05-04 17:40 15.86654 74.04135 34914 ft 466 kts 154°
2026-05-04 17:41 15.80875 74.07188 34908 ft 466 kts 154°
2026-05-04 17:41 15.75098 74.10238 34920 ft 466 kts 154°
2026-05-04 17:42 15.69330 74.13281 34930 ft 465 kts 154°
2026-05-04 17:42 15.63555 74.16325 34920 ft 465 kts 154°
2026-05-04 17:43 15.57786 74.19366 34914 ft 465 kts 154°
2026-05-04 17:43 15.52018 74.22402 34932 ft 465 kts 154°
2026-05-04 17:44 15.46249 74.25439 34928 ft 465 kts 154°
2026-05-04 17:44 15.40473 74.28476 34925 ft 465 kts 154°
2026-05-04 17:45 15.35671 74.31001 34922 ft 465 kts 154°
2026-05-04 17:45 15.28924 74.34545 34918 ft 465 kts 154°
2026-05-04 17:46 15.24127 74.37063 34936 ft 464 kts 154°
2026-05-04 17:46 15.18361 74.40088 34924 ft 464 kts 154°
2026-05-04 17:47 15.12603 74.43107 34927 ft 464 kts 154°
2026-05-04 17:47 15.06843 74.46125 34916 ft 464 kts 154°
2026-05-04 17:48 15.01087 74.49139 34924 ft 463 kts 154°
2026-05-04 17:48 14.95341 74.52147 34923 ft 463 kts 154°
2026-05-04 17:49 14.89584 74.55159 34799 ft 466 kts 154°
2026-05-04 17:49 14.86685 74.56674 34565 ft 466 kts 154°
2026-05-04 17:49 14.83792 74.58186 34326 ft 466 kts 154°
2026-05-04 17:50 14.80900 74.59698 34122 ft 466 kts 154°
2026-05-04 17:50 14.77998 74.61213 33892 ft 468 kts 154°
2026-05-04 17:50 14.75130 74.62711 33648 ft 469 kts 154°
2026-05-04 17:50 14.72148 74.64268 33386 ft 478 kts 154°
2026-05-04 17:51 14.69156 74.65828 33099 ft 486 kts 154°
2026-05-04 17:51 14.66163 74.67390 32801 ft 487 kts 154°
2026-05-04 17:51 14.63146 74.68965 32512 ft 485 kts 154°
2026-05-04 17:51 14.60142 74.70532 32226 ft 484 kts 154°
2026-05-04 17:52 14.57134 74.72101 31937 ft 484 kts 154°
2026-05-04 17:52 14.54131 74.73666 31652 ft 478 kts 154°
2026-05-04 17:52 14.51210 74.75169 31362 ft 463 kts 157°
2026-05-04 17:52 14.48238 74.76293 31065 ft 448 kts 166°
2026-05-04 17:53 14.45209 74.76941 30791 ft 443 kts 175°
2026-05-04 17:53 14.42140 74.77176 30530 ft 442 kts 177°
2026-05-04 17:53 14.39067 74.77385 30257 ft 443 kts 177°
2026-05-04 17:53 14.35999 74.77600 29985 ft 442 kts 177°
2026-05-04 17:54 14.32931 74.77824 29675 ft 442 kts 177°
2026-05-04 17:54 14.29870 74.78054 29363 ft 440 kts 177°
2026-05-04 17:54 14.26820 74.78289 29058 ft 439 kts 177°
2026-05-04 17:54 14.23798 74.78524 28760 ft 430 kts 177°
2026-05-04 17:55 14.20832 74.78756 28297 ft 425 kts 177°
2026-05-04 17:55 14.17896 74.78986 27736 ft 422 kts 177°
2026-05-04 17:55 14.14969 74.79215 27145 ft 420 kts 177°
2026-05-04 17:55 14.12068 74.79441 26595 ft 418 kts 177°
2026-05-04 17:56 14.09180 74.79671 26093 ft 414 kts 175°
2026-05-04 17:56 14.06368 74.80302 25561 ft 414 kts 163°
2026-05-04 17:56 14.03677 74.81297 25123 ft 410 kts 160°
2026-05-04 17:56 14.01031 74.82357 24644 ft 407 kts 159°
2026-05-04 17:57 13.98411 74.83427 24160 ft 405 kts 159°
2026-05-04 17:57 13.95796 74.84501 23685 ft 402 kts 159°
2026-05-04 17:57 13.93211 74.85566 23181 ft 400 kts 159°
2026-05-04 17:57 13.90642 74.86626 22682 ft 396 kts 159°
2026-05-04 17:58 13.88101 74.87677 22201 ft 392 kts 159°
2026-05-04 17:58 13.85579 74.88719 21729 ft 388 kts 159°
2026-05-04 17:58 13.83118 74.89731 21272 ft 384 kts 159°
2026-05-04 17:58 13.80651 74.90739 20852 ft 379 kts 159°
2026-05-04 17:59 13.78207 74.91727 20422 ft 375 kts 159°
2026-05-04 17:59 13.75785 74.92696 19989 ft 372 kts 159°
2026-05-04 17:59 13.72571 74.94165 20186 ft 367 kts 146°
2026-05-04 18:00 13.70933 74.95427 20037 ft 355 kts 141°
2026-05-04 18:00 13.69091 74.97009 19920 ft 335 kts 139°
2026-05-04 18:00 13.67361 74.98532 19667 ft 322 kts 139°
2026-05-04 18:00 13.65686 75.00017 19063 ft 318 kts 139°
2026-05-04 18:01 13.64053 75.01467 18353 ft 320 kts 139°
2026-05-04 18:01 13.62374 75.02962 17686 ft 319 kts 139°
2026-05-04 18:01 13.60699 75.04435 17111 ft 314 kts 143°
2026-05-04 18:02 13.56728 75.06138 15906 ft 308 kts 163°
2026-05-04 18:02 13.54677 75.06759 15290 ft 306 kts 163°
2026-05-04 18:02 13.52649 75.07362 14670 ft 304 kts 164°
2026-05-04 18:02 13.50590 75.07965 13787 ft 313 kts 165°
2026-05-04 18:03 13.48496 75.08574 12723 ft 309 kts 163°
2026-05-04 18:03 13.46441 75.09167 12130 ft 306 kts 164°
2026-05-04 18:03 13.44389 75.09759 11513 ft 306 kts 164°
2026-05-04 18:03 13.42354 75.10351 11434 ft 302 kts 164°
2026-05-04 18:04 13.40342 75.10949 10837 ft 299 kts 164°
2026-05-04 18:04 13.38368 75.11539 9885 ft 294 kts 164°
2026-05-04 18:04 13.34448 75.12722 8655 ft 293 kts 163°
2026-05-04 18:05 13.32499 75.13303 8164 ft 291 kts 164°
2026-05-04 18:05 13.30527 75.13884 8055 ft 298 kts 164°
2026-05-04 18:05 13.28534 75.14464 7980 ft 296 kts 166°
2026-05-04 18:05 13.26509 75.14530 7906 ft 292 kts 194°
2026-05-04 18:06 13.22767 75.13097 7173 ft 286 kts 202°
2026-05-04 18:06 13.20972 75.12394 7078 ft 267 kts 201°
2026-05-04 18:06 13.19261 75.11751 6792 ft 260 kts 200°
2026-05-04 18:07 13.17551 75.11128 6362 ft 262 kts 201°
2026-05-04 18:07 13.15827 75.10511 5903 ft 263 kts 200°
2026-05-04 18:07 13.14107 75.09906 5538 ft 260 kts 200°
2026-05-04 18:07 13.12418 75.09319 5186 ft 257 kts 200°
2026-05-04 18:08 13.10748 75.08741 4995 ft 247 kts 200°
2026-05-04 18:08 13.09167 75.08194 4852 ft 235 kts 199°
2026-05-04 18:08 13.07633 75.07664 4520 ft 237 kts 201°
2026-05-04 18:08 13.06209 75.06793 3972 ft 241 kts 234°
2026-05-04 18:09 13.04674 75.03906 3360 ft 227 kts 240°
2026-05-04 18:09 13.03027 75.01275 2810 ft 209 kts 243°
2026-05-04 18:10 13.02285 75.00036 2531 ft 199 kts 243°
2026-05-04 18:10 13.01593 74.98872 2291 ft 185 kts 241°
2026-05-04 18:10 13.00936 74.97796 2057 ft 169 kts 242°
2026-05-04 18:10 13.00347 74.96812 1860 ft 159 kts 242°
2026-05-04 18:11 12.99781 74.95867 1640 ft 152 kts 239°
2026-05-04 18:11 12.99231 74.94956 1512 ft 147 kts 244°
2026-05-04 18:11 12.98698 74.94064 1276 ft 146 kts 243°
2026-05-04 18:11 12.98193 74.93216 1088 ft 137 kts 237°
2026-05-04 18:12 12.97674 74.92425 976 ft 131 kts 243°
2026-05-04 18:12 12.97259 74.91611 780 ft 126 kts 241°
2026-05-04 18:12 12.96750 74.90872 687 ft 127 kts 237°
2026-05-04 18:12 12.96280 74.90108 529 ft 129 kts 243°
2026-05-04 18:13 12.95859 74.89337 357 ft 122 kts 240°
2026-05-04 18:13 12.95359 74.88486 962 ft 152 kts 246°
2026-05-04 18:13 12.94296 74.86685 3024 ft 149 kts 242°
2026-05-04 18:14 12.93673 74.85577 2398 ft 212 kts 243°
2026-05-04 18:14 12.92979 74.84342 2521 ft 185 kts 244°
2026-05-04 18:14 12.92324 74.83247 2630 ft 178 kts 238°
2026-05-04 18:15 12.92211 74.83077 2661 ft 178 kts 238°
2026-05-04 18:15 12.91559 74.82117 3102 ft 181 kts 237°
2026-05-04 18:16 12.90809 74.81018 3686 ft 188 kts 239°
2026-05-04 18:16 12.90047 74.79922 3910 ft 194 kts 239°
2026-05-04 18:16 12.89226 74.78747 3929 ft 221 kts 234°
2026-05-04 18:17 12.86195 74.77520 3930 ft 254 kts 171°
2026-05-04 18:17 12.85681 74.77636 3928 ft 256 kts 162°
2026-05-04 18:17 12.85119 74.77868 3924 ft 257 kts 151°
2026-05-04 18:18 12.83668 74.78927 3931 ft 256 kts 139°
2026-05-04 18:18 12.82383 74.80151 3906 ft 251 kts 124°
2026-05-04 18:18 12.81748 74.81765 3915 ft 242 kts 93°
2026-05-04 18:18 12.81993 74.83399 3931 ft 234 kts 64°
2026-05-04 18:19 12.83500 74.86367 3932 ft 236 kts 59°
2026-05-04 18:19 12.84269 74.87858 3919 ft 237 kts 59°
2026-05-04 18:19 12.85045 74.89346 3927 ft 237 kts 59°
2026-05-04 18:20 12.85827 74.90830 3916 ft 237 kts 59°
2026-05-04 18:20 12.86610 74.92322 3919 ft 238 kts 58°
2026-05-04 18:20 12.87386 74.93820 3922 ft 239 kts 59°
2026-05-04 18:20 12.88165 74.95323 3922 ft 238 kts 58°
2026-05-04 18:21 12.88939 74.96826 3909 ft 238 kts 58°
2026-05-04 18:21 12.89705 74.98316 3932 ft 235 kts 59°
2026-05-04 18:21 12.90479 74.99801 3917 ft 236 kts 58°
2026-05-04 18:21 12.91250 75.01284 3914 ft 236 kts 59°
2026-05-04 18:22 12.92020 75.02768 3919 ft 236 kts 58°
2026-05-04 18:22 12.92785 75.04251 3919 ft 235 kts 58°
2026-05-04 18:22 12.93549 75.05720 3930 ft 233 kts 59°
2026-05-04 18:22 12.94310 75.07192 3930 ft 234 kts 59°
2026-05-04 18:23 12.95080 75.08689 3930 ft 240 kts 60°
2026-05-04 18:23 12.95860 75.10176 3924 ft 232 kts 59°
2026-05-04 18:23 12.96584 75.11567 3919 ft 209 kts 61°
2026-05-04 18:23 12.97220 75.12830 3895 ft 189 kts 57°
2026-05-04 18:24 12.98106 75.13680 3842 ft 171 kts
2026-05-04 18:24 12.99220 75.13489 3876 ft 171 kts 334°
2026-05-04 18:24 13.00299 75.12903 3881 ft 179 kts 322°
2026-05-04 18:24 13.01221 75.12074 3898 ft 176 kts 320°
2026-05-04 18:25 13.02150 75.11264 3907 ft 171 kts 320°
2026-05-04 18:25 13.03033 75.10502 3888 ft 162 kts 320°
2026-05-04 18:25 13.03890 75.09768 3876 ft 159 kts 320°
2026-05-04 18:25 13.04746 75.09038 3877 ft 158 kts 321°
2026-05-04 18:26 13.05541 75.08279 3825 ft 160 kts 306°
2026-05-04 18:26 13.05912 75.07172 3705 ft 168 kts 274°
2026-05-04 18:26 13.05544 75.06040 3567 ft 175 kts 244°
2026-05-04 18:26 13.05052 75.04919 3522 ft 173 kts 252°
2026-05-04 18:27 13.04517 75.03796 3331 ft 175 kts 241°
2026-05-04 18:27 13.03876 75.02729 3125 ft 172 kts 243°
2026-05-04 18:27 13.03279 75.01709 2895 ft 164 kts 242°
2026-05-04 18:27 13.02691 75.00718 2686 ft 162 kts 242°
2026-05-04 18:28 13.02114 74.99752 2555 ft 155 kts 243°
2026-05-04 18:28 13.01545 74.98805 2365 ft 157 kts 241°
2026-05-04 18:28 13.00970 74.97851 2151 ft 155 kts 243°
2026-05-04 18:28 13.00410 74.96917 1991 ft 151 kts 242°
2026-05-04 18:29 12.99876 74.96029 1781 ft 141 kts 243°
2026-05-04 18:29 12.99385 74.95210 1628 ft 132 kts 242°
2026-05-04 18:29 12.99370 74.95185 1624 ft 132 kts 242°
2026-05-04 18:29 12.98931 74.94448 1471 ft 127 kts 242°
2026-05-04 18:30 12.98123 74.93140 1212 ft 138 kts 238°
2026-05-04 18:30 12.97583 74.92297 1002 ft 142 kts 236°
2026-05-04 18:30 12.96871 74.91182 678 ft 130 kts 242°
2026-05-04 18:31 12.96604 74.90658 587 ft 122 kts 245°
2026-05-04 18:31 12.96208 74.89917 405 ft 115 kts 242°
2026-05-04 18:31 12.95806 74.89247 320 ft 104 kts 240°
2026-05-04 18:31 12.95605 74.88912 316 ft 4 kts 238°
2026-05-04 18:32 12.95600 74.88904 316 ft 8 kts 238°
2026-05-04 18:32 12.95529 74.88785 315 ft 32 kts 238°
2026-05-04 18:32 12.95379 74.88537 316 ft 53 kts 238°
2026-05-04 18:32 12.95158 74.88173 318 ft 41 kts 238°
2026-05-04 18:33 12.95155 74.88041 318 ft 20 kts 330°
2026-05-04 18:33 12.95233 74.87983 318 ft 11 kts 291°
2026-05-04 18:33 12.95224 74.87947 318 ft 11 kts 232°
2026-05-04 18:33 12.95175 74.87871 318 ft 14 kts 237°
2026-05-04 18:34 12.95111 74.87769 318 ft 20 kts 238°
2026-05-04 18:34 12.95030 74.87633 318 ft 25 kts 240°
2026-05-04 18:34 12.94998 74.87493 316 ft 16 kts 230°